Regional Weather Roundup
Issued by NWS

Home | Current Version | Previous Version | Text Only | Print | Product List | Glossary Off
Versions: 1 2 3 4 5 6 7 8 9 10 11 12 13 14 15 16 17 18 19 20 21 22 23 24 25 26 27 28 29 30 31 32 33 34 35 36 37 38 39 40 41 42 43 44 45 46 47 48 49 50

000
ASUS45 KABQ 230401
RWRNM
WEATHER ROUNDUP FOR NEW MEXICO
NATIONAL WEATHER SERVICE ALBUQUERQUE NM
1000 PM MDT TUE JUL 22 2014

NOTE: "FAIR" MEANS FEW OR NO CLOUDS BELOW 12,000 FEET AGL WITH NO
       SIGNIFICANT WEATHER OR OBSTRUCTIONS TO VISION.

      THIS PRODUCT IS RELEASED AS TWO VERSIONS.  ONE VERSION NEAR
      THE TOP OF THE HOUR CONTAINING PRELIMINARY DATA FROM ALBUQUERQUE
      AND OTHER STATIONS.  A FINAL VERSION WITH ADDITIONAL DATA IS
      ISSUED ABOUT 10 MINUTES AFTER THE HOUR.

NMZ501-503-504-510>518-230500-
NORTHWEST PLATEAU/NORTHCENTRAL MOUNTAINS

CITY           SKY/WX    TMP DP  RH WIND       PRES   REMARKS
FARMINGTON     LGT RAIN  88  37  16 E22G30    30.26R
LOS ALAMOS     CLOUDY    72  44  36 S14G20    30.50R
SANTA FE       CLOUDY    72  49  44 SE5       30.43R
TAOS           MOCLDY    66  50  55 CALM      30.49R
ANGEL FIRE     FAIR      60  52  76 CALM      30.60R

$$
NMZ402-403-502-505>509-230500-
WESTCENTRAL MOUNTAINS/SOUTHWEST MOUNTAINS

CITY           SKY/WX    TMP DP  RH WIND       PRES   REMARKS
GALLUP         CLOUDY    77  47  34 S10       30.37R
GRANTS         MOCLDY    72  50  46 SE14      30.43R

$$
NMZ407-409-411-412-230500-
SOUTHERN DESERTS

CITY           SKY/WX    TMP DP  RH WIND       PRES   REMARKS
LORDSBURG      FAIR      79  57  47 SE22      30.24R
DEMING         LGT RAIN  71  67  87 NW3       30.28R FOG
LAS CRUCES     CLOUDY    80  56  42 W14       30.27R
HOLLOMAN AFB   CLOUDY    83  58  43 SW8       30.20R
T OR C         CLOUDY    78  57  48 W5        30.30R

$$
NMZ519>523-230500-
CENTRAL VALLEYS/CENTRAL HIGHLANDS

CITY           SKY/WX    TMP DP  RH WIND       PRES   REMARKS
ALBUQUERQUE    CLOUDY    80  55  42 SE10      30.34F
DOUBLE EAGLE   MOCLDY    73  54  49 S6        30.37F
MORIARTY ARPT  TSTM      64  53  67 E8        30.49R
CLINES CORNERS CLOUDY    63  51  65 N10       30.48S
BELEN          FAIR      79  48  32 N10G18    30.35R
SOCORRO        FAIR      81  47  30 E3        30.30R

$$
NMZ524>526-539-540-230500-
SOUTHCENTRAL MOUNTAINS

CITY           SKY/WX    TMP DP  RH WIND       PRES   REMARKS
RUIDOSO        NOT AVBL

$$
NMZ527>531-230500-
NORTHEAST HIGHLANDS/NORTHEAST PLAINS

CITY           SKY/WX    TMP DP  RH WIND       PRES   REMARKS
LAS VEGAS      CLOUDY    62  57  83 NE7       30.47R
RATON          PTCLDY    75  54  47 SW6       30.41R
CLAYTON        PTCLDY    75  61  61 S14       30.32R

$$
NMZ532>537-230500-
EASTCENTRAL PLAINS

CITY           SKY/WX    TMP DP  RH WIND       PRES   REMARKS
TUCUMCARI      MOCLDY    79  62  56 S10       30.24F
CANNON AFB     MOCLDY    74  61  64 E8        30.28F
CLOVIS AIRPORT NOT AVBL

$$
NMZ028-029-538-230500-
SOUTHEAST PLAINS

CITY           SKY/WX    TMP DP  RH WIND       PRES   REMARKS
ROSWELL        CLOUDY    85  59  41 E6        30.20R
ARTESIA        CLOUDY    84  61  45 N7        30.19R
CARLSBAD       CLOUDY    90  53  28 E10       30.14R
HOBBS          MOCLDY    81  54  39 E8        30.22R


$$



USA.gov is the U.S. government's official web portal to all federal, state and local government web resources and services.